| time (UTC) | temp F | wind direction | speed knots | gust knots | rain 1hr in | rain 24hr in | rain mn in | humidity % | barometer mb |
| 20260504050018 | 56 | 0 | 0.9 | 7.8 | 0.00 | 0.89 | 0.89 | 96 | 1024.0 |
| 20260504043038 | 55 | 315 | 1.7 | 7.0 | 0.00 | 0.89 | 0.89 | 96 | 1023.9 |
| 20260504040018 | 55 | 0 | 1.7 | 7.8 | 0.00 | 0.89 | 0.89 | 96 | 1024.1 |
| 20260504033017 | 55 | 0 | 2.6 | 13.0 | 0.00 | 0.89 | 0.89 | 96 | 1024.2 |
| 20260504030017 | 55 | 0 | 3.5 | 11.3 | 0.00 | 0.89 | 0.89 | 96 | 1024.5 |
| 20260504023020 | 54 | 0 | 2.6 | 12.2 | 0.00 | 0.89 | 0.89 | 96 | 1024.8 |
| 20260504020017 | 54 | 0 | 3.5 | 12.2 | 0.01 | 0.89 | 0.89 | 96 | 1025.4 |
| 20260504013017 | 54 | 0 | 2.6 | 11.3 | 0.03 | 0.89 | 0.89 | 96 | 1025.4 |
| 20260504010016 | 54 | 0 | 3.5 | 11.3 | 0.04 | 0.88 | 0.88 | 95 | 1026.1 |
| 20260504003016 | 54 | 0 | 4.3 | 10.4 | 0.06 | 0.86 | 0.86 | 96 | 1026.5 |
| 20260504000017 | 54 | 0 | 3.5 | 10.4 | 0.08 | 0.84 | 0.84 | 96 | 1026.8 |
| 20260503233018 | 54 | 0 | 3.5 | 13.0 | 0.10 | 0.80 | 0.80 | 95 | 1026.9 |
| 20260503230018 | 54 | 0 | 2.6 | 12.2 | 0.11 | 0.76 | 0.76 | 95 | 1027.1 |
| 20260503223016 | 53 | 0 | 3.5 | 12.2 | 0.10 | 0.70 | 0.70 | 95 | 1026.6 |
| 20260503220017 | 53 | 0 | 2.6 | 8.7 | 0.10 | 0.65 | 0.65 | 95 | 1026.3 |
| 20260503213017 | 53 | 0 | 0.9 | 7.8 | 0.12 | 0.60 | 0.60 | 95 | 1026.0 |
| 20260503210017 | 54 | 0 | 0.9 | 5.2 | 0.15 | 0.55 | 0.55 | 95 | 1026.1 |
| 20260503203016 | 54 | 23 | 1.7 | 7.0 | 0.15 | 0.48 | 0.48 | 95 | 1026.0 |
| 20260503200017 | 54 | 45 | 0.9 | 4.3 | 0.13 | 0.40 | 0.40 | 95 | 1026.1 |
| 20260503193020 | 54 | 0.0 | 6.1 | 0.10 | 0.33 | 0.33 | 95 | 1026.1 | |
| 20260503190018 | 54 | 0.0 | 0.0 | 0.08 | 0.27 | 0.27 | 95 | 1025.8 | |
| 20260503183019 | 54 | 0.0 | 0.0 | 0.08 | 0.23 | 0.23 | 95 | 1026.2 | |
| 20260503180018 | 55 | 0.0 | 2.6 | 0.09 | 0.19 | 0.19 | 94 | 1026.5 | |
| 20260503173018 | 55 | 0.0 | 2.6 | 0.10 | 0.15 | 0.15 | 94 | 1026.8 |